Weather History for Caldwell, ID

Change the Weather History Date:

Wednesday, November 13, 2013

  Actual Average (KBOI) Record (KBOI)
Temperature  
Mean Temperature 45 °F 41 °F  
Max Temperature 57 °F 49 °F 69 °F (1939)
Min Temperature 33 °F 33 °F 7 °F (1916)
Degree Days  
Heating Degree Days 20 24  
Month to date heating degree days 277  
Since 1 July heating degree days 783  
Cooling Degree Days 0 0  
Month to date cooling degree days 0  
Year to date cooling degree days 942  
Moisture  
Dew Point 31 °F    
Average Humidity 63    
Maximum Humidity 76    
Minimum Humidity 41    
Precipitation  
Precipitation 0.00 in 0.04 in 0.80 in (1897)
Month to date precipitation 0.53  
Year to date precipitation 9.36  
Snow  
Snow 0.00 in 0.10 in 2.30 in (1947)
Month to date snowfall 0.5  
Since 1 July snowfall 0.6  
Snow Depth -    
Sea Level Pressure  
Sea Level Pressure 30.35 in    
Wind  
Wind Speed 3 mph (NW)    
Max Wind Speed 15 mph    
Max Gust Speed 23 mph    
Visibility 7 miles    
Events      
T = Trace of Precipitation, MM = Missing Value Source: NWS Daily Summary

Daily Weather History Graph

Daily Weather History Graph

Search for Another Location

Airport:

Trip Planner

Search our weather history database for the weather conditions in past years. The results will help you decide how hot, cold, wet, or windy it might be!

Date:

Astronomy

Nov. 13, 2013 Rise Set
Actual Time 7:38 AM MST 5:22 PM MST
Civil Twilight 7:07 AM MST 5:53 PM MST
Nautical Twilight 6:32 AM MST 6:28 PM MST
Astronomical Twilight 5:59 AM MST 7:02 PM MST
Moon 3:18 PM MST (11/13) 3:29 AM MST (11/13)
Length of Visible Light 10h 46m
Length of Day
9h 44m
Waxing Gibbous, 85% of the Moon is Illuminated
Nov 13
Waxing Gibbous
Nov 17
Full
Nov 25
Last Quarter
Dec 2
New
Dec 9
First Quarter

Hourly Weather History & Observations

Time (MST) Temp. Windchill Dew Point Humidity Pressure Visibility Wind Dir Wind Speed Gust Speed Precip Events Conditions
12:15 AM 35.6 °F 32.8 °F 28.4 °F 75% 30.37 in 4.0 mi SE 3.5 mph - N/A   Clear
12:35 AM 35.6 °F - 28.4 °F 75% 30.37 in 4.0 mi Calm Calm - N/A   Partly Cloudy
12:55 AM 37.4 °F 34.9 °F 28.4 °F 70% 30.36 in 5.0 mi SSE 3.5 mph - N/A   Partly Cloudy
1:15 AM 37.4 °F - 30.2 °F 75% 30.36 in 5.0 mi Calm Calm - N/A   Clear
1:35 AM 37.4 °F - 30.2 °F 75% 30.36 in 4.0 mi Calm Calm - N/A   Clear
1:55 AM 37.4 °F - 30.2 °F 75% 30.36 in 3.0 mi Calm Calm - N/A   Clear
2:15 AM 35.6 °F - 28.4 °F 75% 30.36 in 3.0 mi Calm Calm - N/A   Clear
2:35 AM 35.6 °F 31.7 °F 28.4 °F 75% 30.35 in 3.0 mi ESE 4.6 mph - N/A   Clear
2:55 AM 35.6 °F 31.7 °F 28.4 °F 75% 30.35 in 3.0 mi ENE 4.6 mph - N/A   Clear
3:15 AM 35.6 °F 29.9 °F 28.4 °F 75% 30.34 in 3.0 mi East 6.9 mph - N/A   Clear
3:35 AM 35.6 °F 30.7 °F 28.4 °F 75% 30.34 in 3.0 mi ESE 5.8 mph - N/A   Clear
3:55 AM 35.6 °F 30.7 °F 28.4 °F 75% 30.34 in 4.0 mi ESE 5.8 mph - N/A   Clear
4:15 AM 37.4 °F - 28.4 °F 70% 30.34 in 4.0 mi Calm Calm - N/A   Clear
4:35 AM 35.6 °F - 28.4 °F 75% 30.34 in 4.0 mi Calm Calm - N/A   Clear
4:55 AM 37.4 °F - 28.4 °F 70% 30.34 in 4.0 mi Calm Calm - N/A   Scattered Clouds
5:15 AM 37.4 °F 34.9 °F 28.4 °F 70% 30.34 in 5.0 mi SSE 3.5 mph - N/A   Mostly Cloudy
5:35 AM 35.6 °F - 28.4 °F 75% 30.34 in 5.0 mi Calm Calm - N/A   Mostly Cloudy
5:55 AM 35.6 °F - 28.4 °F 75% 30.35 in 4.0 mi Calm Calm - N/A   Mostly Cloudy
6:15 AM 35.6 °F 30.7 °F 28.4 °F 75% 30.35 in 4.0 mi ENE 5.8 mph - N/A   Mostly Cloudy
6:35 AM 37.4 °F 32.1 °F 28.4 °F 70% 30.34 in 3.0 mi East 6.9 mph - N/A   Overcast
6:55 AM 37.4 °F - 30.2 °F 75% 30.35 in 5.0 mi Calm Calm - N/A   Overcast
7:15 AM 37.4 °F - 28.4 °F 70% 30.36 in 5.0 mi Calm Calm - N/A   Overcast
7:35 AM 37.4 °F - 30.2 °F 75% 30.36 in 4.0 mi Calm Calm - N/A   Overcast
7:55 AM 37.4 °F 34.9 °F 30.2 °F 75% 30.35 in 3.0 mi SE 3.5 mph - N/A   Overcast
8:15 AM 37.4 °F 34.9 °F 30.2 °F 75% 30.35 in 3.0 mi SE 3.5 mph - N/A   Overcast
8:35 AM 37.4 °F - 30.2 °F 75% 30.37 in 4.0 mi Calm Calm - N/A   Overcast
8:55 AM 39.2 °F - 32.0 °F 75% 30.37 in 4.0 mi Calm Calm - N/A   Overcast
9:15 AM 39.2 °F - 32.0 °F 75% 30.37 in 5.0 mi Calm Calm - N/A   Overcast
9:35 AM 41.0 °F - 33.8 °F 76% 30.37 in 5.0 mi Calm Calm - N/A   Scattered Clouds
9:55 AM 41.0 °F - 33.8 °F 76% 30.38 in 5.0 mi Calm Calm - N/A   Clear
10:15 AM 44.6 °F - 35.6 °F 71% 30.39 in 6.0 mi Calm Calm - N/A   Clear
10:55 AM 48.2 °F - 37.4 °F 66% 30.40 in 10.0 mi NW 3.5 mph - N/A   Mostly Cloudy
11:15 AM 48.2 °F - 37.4 °F 66% 30.40 in 10.0 mi WNW 8.1 mph - N/A   Mostly Cloudy
11:35 AM 51.8 °F - 39.2 °F 62% 30.40 in 10.0 mi NW 6.9 mph - N/A   Clear
11:55 AM 51.8 °F - 39.2 °F 62% 30.40 in 10.0 mi WNW 5.8 mph - N/A   Clear
12:15 PM 53.6 °F - 39.2 °F 58% 30.38 in 10.0 mi NW 5.8 mph - N/A   Clear
12:35 PM 55.4 °F - 39.2 °F 54% 30.38 in 10.0 mi NNW 10.4 mph 17.3 mph N/A   Clear
1:15 PM 57.2 °F - 37.4 °F 48% 30.37 in 10.0 mi NW 10.4 mph 17.3 mph N/A   Clear
1:35 PM 57.2 °F - 35.6 °F 44% 30.35 in 10.0 mi NW 15.0 mph 23.0 mph N/A   Clear
1:55 PM 57.2 °F - 35.6 °F 44% 30.34 in 10.0 mi NW 12.7 mph - N/A   Clear
2:15 PM 57.2 °F - 35.6 °F 44% 30.32 in 10.0 mi NW 10.4 mph - N/A   Clear
2:35 PM 57.2 °F - 35.6 °F 44% 30.34 in 10.0 mi WNW 11.5 mph - N/A   Clear
3:15 PM 57.2 °F - 35.6 °F 44% 30.34 in 10.0 mi NW 10.4 mph - N/A   Clear
3:35 PM 57.2 °F - 33.8 °F 41% 30.33 in 10.0 mi NW 12.7 mph 17.3 mph N/A   Clear
4:15 PM 57.2 °F - 33.8 °F 41% 30.34 in 10.0 mi NNW 6.9 mph - N/A   Clear
4:35 PM 55.4 °F - 33.8 °F 44% 30.34 in 10.0 mi NNW 8.1 mph - N/A   Clear
4:55 PM 55.4 °F - 33.8 °F 44% 30.34 in 10.0 mi NNW 5.8 mph - N/A   Clear
5:15 PM 53.6 °F - 30.2 °F 41% 30.34 in 10.0 mi NNW 5.8 mph - N/A   Clear
5:35 PM 53.6 °F - 30.2 °F 41% 30.34 in 10.0 mi NNW 3.5 mph - N/A   Clear
5:55 PM 51.8 °F - 30.2 °F 44% 30.34 in 10.0 mi Calm Calm - N/A   Clear
6:15 PM 51.8 °F - 30.2 °F 44% 30.33 in 10.0 mi NW 4.6 mph - N/A   Clear
6:35 PM 48.2 °F - 28.4 °F 46% 30.32 in 10.0 mi North 3.5 mph - N/A   Clear
6:55 PM 44.6 °F - 28.4 °F 53% 30.32 in 10.0 mi Calm Calm - N/A   Clear
7:15 PM 46.4 °F 44.3 °F 28.4 °F 50% 30.32 in 10.0 mi SW 4.6 mph - N/A   Clear
7:35 PM 42.8 °F 38.0 °F 28.4 °F 57% 30.32 in 10.0 mi West 8.1 mph - N/A   Clear
7:55 PM 42.8 °F - 28.4 °F 57% 30.32 in 10.0 mi Calm Calm - N/A   Clear
8:15 PM 39.2 °F 37.0 °F 26.6 °F 61% 30.32 in 10.0 mi NNE 3.5 mph - N/A   Clear
8:35 PM 39.2 °F - 26.6 °F 61% 30.32 in 10.0 mi Calm Calm - N/A   Clear
8:55 PM 39.2 °F 35.9 °F 26.6 °F 61% 30.32 in 10.0 mi NNW 4.6 mph - N/A   Clear
9:15 PM 39.2 °F 35.9 °F 28.4 °F 65% 30.31 in 10.0 mi West 4.6 mph - N/A   Clear
9:35 PM 39.2 °F 35.9 °F 28.4 °F 65% 30.31 in 10.0 mi WSW 4.6 mph - N/A   Clear
9:55 PM 37.4 °F - 26.6 °F 65% 30.31 in 10.0 mi Calm Calm - N/A   Clear
10:15 PM 37.4 °F - 26.6 °F 65% 30.30 in 9.0 mi Calm Calm - N/A   Clear
10:35 PM 37.4 °F - 26.6 °F 65% 30.30 in 5.0 mi Calm Calm - N/A   Clear
10:55 PM 35.6 °F - 24.8 °F 65% 30.30 in 8.0 mi Calm Calm - N/A   Clear
11:15 PM 35.6 °F - 24.8 °F 65% 30.31 in 10.0 mi Calm Calm - N/A   Clear
11:35 PM 33.8 °F 30.8 °F 23.0 °F 65% 30.31 in 10.0 mi SSW 3.5 mph - N/A   Clear
11:55 PM 33.8 °F 30.8 °F 24.8 °F 70% 30.31 in 8.0 mi SSW 3.5 mph - N/A   Clear